Location: Pittsburgh
(40.4410°N, 79.9960°W)
Time: 12:50:11
(UTC-04:00)

BlueWalker 3 - Visible Passes

Search period start: 13 March 2026 00:00
Search period end: 23 March 2026 00:00
Orbit: 451 x 458 km, 53.2° (Epoch: 12 March)

Date Brightness Start Highest point End Pass type
(mag) Time Alt. Az. Time Alt. Az. Time Alt. Az.
13 Mar 4.3 05:29:12 14° N 05:30:13 15° NNE 05:32:24 10° NE visible
13 Mar 2.4 07:04:45 10° NW 07:08:18 57° NE 07:11:50 10° ESE visible
14 Mar 4.8 04:54:32 13° NNE 04:54:32 13° NNE 04:55:47 10° NE visible
14 Mar 2.8 06:28:38 10° NW 06:32:05 43° NNE 06:35:31 10° ESE visible
15 Mar 3.2 05:53:40 18° NNW 05:55:50 34° NNE 05:59:09 10° E visible
16 Mar 3.5 05:19:14 27° NNE 05:19:34 28° NNE 05:22:42 10° E visible
16 Mar 2.2 06:53:42 10° WNW 06:57:05 40° SW 07:00:27 10° SSE visible
17 Mar 4.7 04:44:57 17° ENE 04:44:57 17° ENE 04:46:12 10° E visible
17 Mar 1.8 06:18:40 20° WNW 06:20:56 56° SW 06:24:25 10° SE visible
18 Mar 1.5 05:44:37 77° WSW 05:44:43 78° SW 05:48:18 10° SE visible
19 Mar 3.9 05:10:47 21° ESE 05:10:47 21° ESE 05:12:05 10° SE visible
19 Mar 3.8 06:44:32 11° WSW 06:45:27 12° SW 06:46:46 10° SSW visible
20 Mar 3.9 06:10:57 13° SSW 06:10:57 13° SSW 06:11:36 10° SSW visible
20 Mar 3.5 21:19:34 10° SSW 21:20:59 21° SSW 21:20:59 21° SSW visible
21 Mar 2.4 20:43:34 10° SSW 20:46:49 33° SE 20:47:31 30° ESE visible
21 Mar 4.9 22:21:00 10° W 22:21:17 12° W 22:21:17 12° W visible
22 Mar 2.9 20:07:40 10° S 20:10:37 24° SE 20:13:36 10° ENE visible
22 Mar 3.1 21:44:31 10° WSW 21:47:35 38° NW 21:47:35 38° NW visible
